[[{"header":{"parameterUnit":"m.s-1","parameterCategory":1,"la1":30.2991,"la2":30.254,"lo1":-89.0895,"lo2":-89.0444,"dy":0.0017,"dx":0.0017,"nx":28,"ny":28,"refTime":"2024-10-19T03:00:00:Z","depth":0,"parameterNumber":2,"parameterNumberName":"U-component_of_WINDS"},"data":[0,0,0,0,0,0,0,0,0,0,0,0,0,0,0,0,0,0,0,0,0,0,0,0,0,0,0,0,0,0,0,0,0,0,0,0,0,0,0,0,0,0,0,0,0,0,0,0,0,0,0,0,0,0,0,0,0,0,-3.3397,-3.3397,0,-3.3411,-3.3411,-3.3412,-3.33,-3.3297,-3.3294,-3.3291,-3.3304,-3.3308,-3.3311,0,0,0,0,0,0,0,0,0,0,0,0,0,-3.3271,-3.3274,-3.3397,-3.3397,-3.3397,-3.3411,-3.3411,-3.3412,-3.33,-3.3297,-3.3293,-3.3289,-3.3303,-3.3307,-3.3311,0,0,0,0,0,0,0,0,0,0,0,0,0,-3.331,-3.3275,-3.3397,-3.3344,-3.3339,-3.3411,-3.3411,-3.3412,-3.3301,-3.3297,-3.3292,-3.3288,-3.3302,-3.3307,-3.3312,-3.3435,0,0,-3.3327,-3.3329,0,0,0,0,0,0,0,0,-3.3308,-3.3315,-3.3351,-3.3347,-3.3342,-3.3349,-3.3372,-3.342,-3.3302,-3.3316,-3.3291,-3.3285,-3.3323,-3.3326,-3.3339,-3.3436,-3.3437,-3.3327,-3.333,-3.3332,-3.3333,0,0,0,0,0,0,0,-3.3305,-3.3313,-3.3402,-3.3352,-3.3346,-3.3318,-3.3319,-3.3381,-3.3345,-3.3314,-3.3306,-3.3309,-3.332,-3.3334,-3.3338,-3.3437,-3.3327,-3.3331,-3.3334,-3.3336,-3.3636,-3.3641,0,0,0,0,0,0,-3.331,-3.3312,-3.3402,-3.3403,-3.3313,-3.3324,-3.3325,-3.3352,-3.3344,-3.3339,-3.3313,-3.3304,-3.3328,-3.3333,-3.3338,-3.3482,-3.3332,-3.3337,-3.3339,-3.3631,-3.3637,-3.3642,0,0,0,0,0,0,-3.3308,-3.3319,-3.3401,-3.3355,-3.3364,-3.3331,-3.3363,-3.3354,-3.3369,-3.3344,-3.3337,-3.3335,-3.3325,-3.3331,-3.3412,-3.3481,-3.3339,-3.3343,-3.3625,-3.3633,-3.364,-3.3772,0,0,0,0,0,0,-3.3305,-3.3319,-3.3366,-3.3357,-3.3367,-3.3476,-3.3367,-3.3358,-3.3378,-3.3366,-3.3362,-3.3357,-3.3322,-3.3405,-3.3417,-3.3485,-3.3347,-3.3618,-3.3628,-3.3637,-3.3761,-3.3783,-3.3802,0,0,0,0,0,-3.3301,-3.3403,-3.3369,-3.3381,-3.3425,-3.348,-3.3485,-3.3443,-3.3384,-3.3431,-3.3414,-3.3357,-3.3472,-3.3415,-3.3427,-3.3498,-3.3614,-3.3626,-3.3636,-3.3752,-3.3779,-3.3801,0,0,0,0,0,0,-3.3421,-3.3401,-3.3363,-3.3466,-3.3476,-3.3461,-3.3519,-3.3472,-3.3499,-3.3487,-3.3432,-3.3432,-3.3522,-3.3518,-3.3454,-3.3617,-3.3532,-3.3547,-3.3616,-3.3641,-3.3661,-3.366,-3.3351,0,0,0,0,0,-3.3459,-3.3506,-3.3486,-3.3578,-3.3585,-3.3552,-3.3574,-3.354,-3.3548,-3.3552,-3.3541,-3.3551,-3.3588,-3.3615,-3.3648,-3.376,-3.3757,-3.3815,-3.3835,-3.3852,-3.3865,-3.3923,-3.3948,-3.3679,-3.3679,-3.3679,0,0,-3.3539,-3.3534,-3.3567,-3.3602,-3.3606,-3.3655,-3.3556,-3.3612,-3.3648,-3.356,-3.3635,-3.3628,-3.3635,-3.3732,-3.3774,-3.3731,-3.3939,-3.3866,-3.388,-3.3884,-3.3937,-3.3963,-3.3986,-3.3687,-3.3686,-3.3684,0,0,-3.3709,-3.3711,-3.3787,-3.3793,-3.38,-3.3777,-3.3796,-3.3788,-3.378,-3.3855,-3.379,-3.3832,-3.3898,-3.3906,-3.3918,-3.4092,-3.404,-3.4104,-3.421,-3.4268,-3.4289,-3.4307,-3.4369,-3.4391,-3.4117,-3.4118,-3.4118,0,-3.3808,-3.388,-3.3833,-3.3894,-3.3911,-3.3834,-3.3911,-3.3918,-3.3936,-3.3949,-3.3901,-3.3983,-3.3982,-3.4079,-3.4122,-3.4135,-3.4154,-3.4104,-3.429,-3.4308,-3.4324,-3.4382,-3.4406,-3.4125,-3.4124,-3.4124,-3.4123,0,-3.4,-3.4051,-3.4112,-3.4131,-3.4155,-3.4224,-3.4187,-3.4217,-3.4181,-3.4163,-3.424,-3.4237,-3.4268,-3.4288,-3.4254,-3.4381,-3.4354,-3.4299,-3.4213,-3.4358,-3.4412,-3.4434,-3.4136,-3.4134,-3.4131,-3.4129,0,0,-3.4247,-3.4239,-3.4262,-3.4269,-3.4271,-3.4309,-3.4374,-3.4405,-3.4432,-3.4447,-3.4499,-3.4558,-3.4506,-3.4521,-3.4486,-3.4537,-3.4674,-3.4475,-3.4474,-3.4512,-3.4813,-3.4855,-3.4882,-3.464,-3.4644,-3.4647,-3.4813,0,-3.4413,-3.4524,-3.4483,-3.4596,-3.4643,-3.457,-3.4626,-3.4633,-3.4618,-3.4655,-3.4637,-3.468,-3.4609,-3.4617,-3.4664,-3.4648,-3.4734,-3.4635,-3.4688,-3.4691,-3.4689,-3.491,-3.4954,-3.511,-3.4833,-3.4837,-3.4839,0,-3.4621,-3.4645,-3.4763,-3.4756,-3.4774,-3.4826,-3.4851,-3.4887,-3.4893,-3.4878,-3.4895,-3.4849,-3.4912,-3.4827,-3.4912,-3.4846,-3.4865,-3.486,-3.4865,-3.4868,-3.4774,-3.4919,-3.5159,-3.5183,-3.4872,-3.4869,-3.4867,0,-3.4789,-3.485,-3.4928,-3.4937,-3.4931,-3.4969,-3.4969,-3.497,-3.4991,-3.5013,-3.5026,-3.5055,-3.5071,-3.5094,-3.5057,-3.4998,-3.5148,-3.5059,-3.5137,-3.5138,-3.5172,-3.517,-3.5419,-3.5185,-3.5184,-3.5184,-3.5183,0,-3.4979,-3.5054,-3.5004,-3.5052,-3.5134,-3.5086,-3.5168,-3.5159,-3.5161,-3.5206,-3.5145,-3.5188,-3.5137,-3.5176,-3.5148,-3.5223,-3.523,-3.522,-3.5211,-3.5225,-3.5227,-3.5237,-3.5225,-3.519,-3.5189,-3.5188,-3.5187,0,-3.518,-3.5149,-3.523,-3.5218,-3.5217,-3.5278,-3.5267,-3.5311,-3.5291,-3.5349,-3.536,-3.5329,-3.5371,-3.5337,-3.5378,-3.5359,-3.5458,-3.5434,-3.5457,-3.545,-3.5529,-3.5523,-3.5793,-3.5826,-3.5572,-3.5574,-3.5576,0,-3.5303,-3.5359,-3.5353,-3.5379,-3.5382,-3.5425,-3.5446,-3.5401,-3.5425,-3.5437,-3.5479,-3.5516,-3.5543,-3.5614,-3.5595,-3.5626,-3.5602,-3.5695,-3.5607,-3.5619,-3.5604,-3.5601,-3.5606,-3.5713,-3.5716,-3.5719,-3.5721,0,-3.5525,-3.5507,-3.554,-3.5568,-3.5595,-3.5615,-3.563,-3.5654,-3.5608,-3.5639,-3.5681,-3.5703,-3.5744,-3.5782,-3.5806,-3.5805,-3.5756,-3.5749,-3.5768,-3.5783,-3.5794,-3.5789,-3.5505,-3.5743,-3.574,-3.5739,-3.5738,-3.5737,-3.569,-3.5737,-3.574,-3.5779,-3.5785,-3.58,-3.5841,-3.5827,-3.5861,-3.5892,-3.5863,-3.5914,-3.5918,-3.5946,-3.5951,-3.599,-3.5952,-3.598,-3.5987,-3.5995,-3.6007,-3.5788,-3.5994,-3.5994,-3.5993,-3.5993,-3.5992,0,-3.5909,-3.5907,-3.5943,-3.5966,-3.5997,-3.5947,-3.5961,-3.599,-3.6036,-3.6044,-3.6072,-3.6121,-3.6157,-3.6141,-3.6172,-3.6206,-3.6185,-3.6216,-3.6213,-3.6214,-3.6039,-3.6019,-3.6233,-3.6233,-3.6233,-3.6233,-3.6233,-3.6233,-3.6026,-3.6102,-3.6084,-3.6162,-3.6159,-3.6209,-3.6222,-3.6235,-3.6241,-3.6299,-3.6328,-3.6318,-3.6316,-3.6347,-3.6377,-3.6372,-3.6386,-3.6426,-3.6412,-3.625,-3.6226,-3.6203,-3.6184,-3.643,-3.643,-3.6583,-3.6585,-3.6586]},{"header":{"parameterUnit":"m.s-1","parameterCategory":1,"la1":30.2991,"la2":30.254,"lo1":-89.0895,"lo2":-89.0444,"dy":0.0017,"dx":0.0017,"nx":28,"ny":28,"refTime":"2024-10-19T03:00:00:Z","depth":0,"parameterNumber":3,"parameterNumberName":"V-component_of_WINDS"},"data":[0,0,0,0,0,0,0,0,0,0,0,0,0,0,0,0,0,0,0,0,0,0,0,0,0,0,0,0,0,0,0,0,0,0,0,0,0,0,0,0,0,0,0,0,0,0,0,0,0,0,0,0,0,0,0,0,0,0,-0.3968,-0.3968,0,-0.4021,-0.4021,-0.4022,-0.4016,-0.4015,-0.4014,-0.4013,-0.4067,-0.407,-0.4072,0,0,0,0,0,0,0,0,0,0,0,0,0,-0.3861,-0.3863,-0.3968,-0.3968,-0.3969,-0.4021,-0.4021,-0.4022,-0.4016,-0.4015,-0.4014,-0.4013,-0.4067,-0.4069,-0.4072,0,0,0,0,0,0,0,0,0,0,0,0,0,-0.391,-0.3864,-0.3968,-0.3972,-0.3973,-0.402,-0.4021,-0.4022,-0.4016,-0.4015,-0.4014,-0.4012,-0.4066,-0.4069,-0.4072,-0.4118,0,0,-0.4083,-0.4084,0,0,0,0,0,0,0,0,-0.3907,-0.3914,-0.3971,-0.3972,-0.3973,-0.401,-0.4004,-0.4054,-0.4016,-0.4,-0.4013,-0.4012,-0.4049,-0.4054,-0.4067,-0.4121,-0.4123,-0.4083,-0.4085,-0.4086,-0.4087,0,0,0,0,0,0,0,-0.3904,-0.3912,-0.3989,-0.3972,-0.3973,-0.3972,-0.3977,-0.4013,-0.4031,-0.4001,-0.4001,-0.4007,-0.405,-0.4064,-0.4068,-0.4124,-0.4083,-0.4086,-0.4088,-0.4089,-0.4218,-0.422,0,0,0,0,0,0,-0.3899,-0.3909,-0.3987,-0.399,-0.3936,-0.3974,-0.3981,-0.4,-0.4031,-0.4034,-0.4008,-0.4007,-0.4058,-0.4064,-0.407,-0.4126,-0.4086,-0.4089,-0.4091,-0.4217,-0.4219,-0.422,0,0,0,0,0,0,-0.3897,-0.3906,-0.3985,-0.395,-0.3959,-0.3978,-0.3999,-0.4001,-0.4015,-0.4036,-0.4039,-0.4019,-0.4058,-0.4065,-0.4106,-0.4128,-0.4091,-0.4094,-0.4215,-0.4218,-0.422,-0.4238,0,0,0,0,0,0,-0.3894,-0.3906,-0.3923,-0.395,-0.3961,-0.4021,-0.4,-0.4003,-0.4021,-0.4019,-0.4047,-0.405,-0.4057,-0.4101,-0.411,-0.4131,-0.4097,-0.4214,-0.4216,-0.4219,-0.4235,-0.424,-0.4245,0,0,0,0,0,-0.389,-0.3927,-0.3924,-0.3934,-0.3984,-0.4022,-0.4028,-0.4036,-0.4023,-0.4041,-0.4054,-0.4049,-0.4124,-0.4106,-0.4115,-0.4138,-0.4212,-0.4216,-0.4219,-0.4233,-0.4239,-0.4244,0,0,0,0,0,0,-0.3902,-0.393,-0.3928,-0.3974,-0.3996,-0.4021,-0.4044,-0.4042,-0.4067,-0.4065,-0.4073,-0.4079,-0.4121,-0.4133,-0.4113,-0.4184,-0.4166,-0.4171,-0.4174,-0.418,-0.4185,-0.4181,-0.4099,0,0,0,0,0,-0.391,-0.3939,-0.3961,-0.4,-0.4011,-0.4025,-0.4042,-0.4046,-0.4068,-0.4078,-0.4094,-0.4116,-0.4144,-0.4163,-0.419,-0.4237,-0.4243,-0.4258,-0.4262,-0.4266,-0.427,-0.4296,-0.4303,-0.4231,-0.4231,-0.4231,0,0,-0.3927,-0.3946,-0.3963,-0.4003,-0.402,-0.4049,-0.4033,-0.4065,-0.4087,-0.4082,-0.4122,-0.4135,-0.416,-0.4204,-0.4225,-0.4216,-0.4291,-0.427,-0.4273,-0.4275,-0.43,-0.4307,-0.4313,-0.4233,-0.4233,-0.4232,0,0,-0.3972,-0.399,-0.4023,-0.4041,-0.4067,-0.4076,-0.4084,-0.411,-0.4118,-0.4158,-0.4156,-0.4181,-0.423,-0.4248,-0.4264,-0.4316,-0.4312,-0.4324,-0.4348,-0.4373,-0.4379,-0.4384,-0.4402,-0.4409,-0.4329,-0.4329,-0.4329,0,-0.399,-0.4034,-0.4041,-0.4073,-0.409,-0.4088,-0.4122,-0.4138,-0.4172,-0.4184,-0.4174,-0.4235,-0.4252,-0.43,-0.4313,-0.4325,-0.4335,-0.4321,-0.4377,-0.4382,-0.4387,-0.4405,-0.4412,-0.433,-0.433,-0.433,-0.4329,0,-0.4054,-0.4085,-0.4109,-0.4141,-0.4161,-0.4194,-0.4206,-0.4225,-0.4227,-0.4237,-0.4278,-0.4298,-0.4329,-0.4341,-0.4343,-0.439,-0.4384,-0.4375,-0.4358,-0.4395,-0.4412,-0.4419,-0.4332,-0.4331,-0.4331,-0.4331,0,0,-0.4109,-0.4145,-0.4154,-0.4168,-0.4197,-0.422,-0.4253,-0.4283,-0.43,-0.4323,-0.435,-0.4391,-0.4384,-0.4401,-0.4405,-0.4427,-0.4467,-0.4416,-0.4417,-0.4425,-0.4519,-0.4525,-0.4533,-0.4465,-0.4466,-0.4467,-0.4517,0,-0.4158,-0.4216,-0.4222,-0.4274,-0.4302,-0.43,-0.4328,-0.4348,-0.4359,-0.4384,-0.4395,-0.4424,-0.4412,-0.4423,-0.4444,-0.4458,-0.4486,-0.4454,-0.4491,-0.4492,-0.4485,-0.4542,-0.4549,-0.4595,-0.4524,-0.4525,-0.4526,0,-0.4222,-0.4247,-0.4301,-0.4325,-0.4337,-0.4363,-0.4391,-0.4415,-0.4438,-0.4444,-0.4464,-0.4465,-0.4498,-0.4479,-0.4525,-0.4503,-0.4519,-0.4527,-0.4529,-0.4533,-0.4511,-0.4547,-0.461,-0.4617,-0.4536,-0.4535,-0.4535,0,-0.4257,-0.4304,-0.4342,-0.4355,-0.4384,-0.4402,-0.4415,-0.4436,-0.4454,-0.4479,-0.449,-0.4518,-0.4534,-0.4556,-0.4564,-0.4549,-0.461,-0.4591,-0.4616,-0.4616,-0.4629,-0.4628,-0.4695,-0.4639,-0.4639,-0.4638,-0.4638,0,-0.431,-0.4343,-0.4358,-0.4382,-0.4419,-0.4426,-0.4462,-0.4475,-0.4494,-0.452,-0.4519,-0.4544,-0.4554,-0.458,-0.4586,-0.4624,-0.4631,-0.4637,-0.4638,-0.4637,-0.4636,-0.4647,-0.4644,-0.464,-0.464,-0.464,-0.4639,0,-0.4356,-0.4367,-0.4408,-0.4432,-0.4439,-0.4465,-0.4486,-0.4509,-0.4518,-0.4551,-0.4559,-0.4575,-0.4605,-0.4616,-0.4653,-0.4658,-0.4701,-0.47,-0.4693,-0.4694,-0.4718,-0.4715,-0.4794,-0.4805,-0.4741,-0.4742,-0.4742,0,-0.4389,-0.4414,-0.4441,-0.4458,-0.4472,-0.45,-0.4518,-0.4526,-0.4544,-0.4572,-0.4592,-0.4622,-0.4646,-0.4695,-0.471,-0.4738,-0.4737,-0.4763,-0.4742,-0.474,-0.4738,-0.4736,-0.4739,-0.4767,-0.4768,-0.4768,-0.4769,0,-0.4447,-0.4451,-0.4477,-0.4505,-0.4527,-0.4549,-0.457,-0.4585,-0.4596,-0.4617,-0.4648,-0.4667,-0.4704,-0.4734,-0.4763,-0.4776,-0.4775,-0.4775,-0.4782,-0.4782,-0.4777,-0.478,-0.4704,-0.4773,-0.4773,-0.4773,-0.4772,-0.4772,-0.4488,-0.451,-0.4532,-0.4561,-0.4578,-0.4598,-0.4621,-0.4633,-0.4659,-0.4691,-0.4694,-0.4727,-0.4749,-0.4787,-0.4802,-0.4828,-0.4821,-0.4831,-0.4834,-0.4837,-0.4839,-0.4772,-0.4833,-0.4833,-0.4833,-0.4833,-0.4833,0,-0.4546,-0.456,-0.4587,-0.4617,-0.4639,-0.4635,-0.4659,-0.4678,-0.4707,-0.4728,-0.4752,-0.4787,-0.4816,-0.4833,-0.4862,-0.488,-0.488,-0.4887,-0.4886,-0.4889,-0.4843,-0.4834,-0.4887,-0.4887,-0.4887,-0.4887,-0.4887,-0.4887,-0.4579,-0.4617,-0.4624,-0.467,-0.4684,-0.4716,-0.473,-0.4748,-0.4765,-0.4804,-0.4828,-0.4839,-0.4858,-0.4888,-0.4915,-0.4919,-0.493,-0.4938,-0.4941,-0.4898,-0.4893,-0.4887,-0.4879,-0.494,-0.494,-0.4985,-0.4986,-0.4986]}]]